Location: Aulus
(42.7909°N, 1.3399°E)
Time: 19:08:45
(UTC+00:00)

Cosmos 192 - Pass Details

Date: 19 May 2025
Orbit: 695 x 708 km, 74.0° (Epoch: 22 June)

Event Time Altitude Azimuth Distance (km) Brightness Sun altitude
Rises 21:47:42 0° 340° (NNW) 3,112 9.1 -21.1°
Reaches altitude 10° 21:50:02 10° 341° (NNW) 2,190 8.0 -21.3°
Maximum altitude 21:55:00 84° 70° (ENE) 718 4.2 -21.8°
Enters shadow 21:56:02 56° 152° (SSE) 839 4.3 -21.9°
